Location: ????
(55.2778°N, 39.2433°E)
Time: 21:56:09
(UTC+00:00)

Cosmos 1766 - Pass Details

Date: 14 April 2024
Orbit: 487 x 504 km, 82.5° (Epoch: 23 May)

Event Time Altitude Azimuth Distance (km) Brightness Sun altitude
Rises 01:19:03 0° 349° (NNW) 2,588 7.0 -8.8°
Reaches altitude 10° 01:21:11 10° 351° (N) 1,697 6.1 -8.6°
Maximum altitude 01:24:54 76° 77° (ENE) 512 3.3 -8.1°
Drops below altitude 10° 01:28:34 10° 164° (SSE) 1,676 5.7 -7.7°
Sets 01:30:39 0° 166° (SSE) 2,551 6.6 -7.4°
